Port Heiden, AK

5:57 PM AKDT on June 28, 2017 (GMT -0800)
Port Heiden

Weather History for PAPH - February, 2014

Change the Weather History Date:

Saturday, February 22, 2014

  Actual Average Record
Temperature  
Mean Temperature 42 °F -  
Max Temperature 44 °F 31 °F 44 °F (2014)
Min Temperature 39 °F 22 °F 3 °F (2007)
Degree Days  
Heating Degree Days 24    
Moisture  
Dew Point 34 °F    
Average Humidity 73    
Maximum Humidity 81    
Minimum Humidity 66    
Precipitation  
Precipitation 0.08 in - - ()
Sea Level Pressure  
Sea Level Pressure 29.44 in    
Wind  
Wind Speed 32 mph (ESE)    
Max Wind Speed 46 mph    
Max Gust Speed 62 mph    
Visibility 8 miles    
Events      
Averages and records for this station are not official NWS values.
T = Trace of Precipitation, MM = Missing Value Source: NWS Daily Summary

Daily Weather History Graph

Daily Weather History Graph

Search for Another Location

Airport or City:

Trip Planner

Search our weather history database for the weather conditions in past years. The results will help you decide how hot, cold, wet, or windy it might be!

Date:

Astronomy

Feb. 22, 2014 Rise Set
Actual Time 8:44 AM AKST 6:52 PM AKST
Civil Twilight 8:05 AM AKST 7:31 PM AKST
Nautical Twilight 7:21 AM AKST 8:15 PM AKST
Astronomical Twilight 6:37 AM AKST 8:59 PM AKST
Moon 3:23 AM AKST (2/22) 11:38 AM AKST (2/22)
Length of Visible Light 11h 25m
Length of Day
10h 07m
Waning Gibbous, 48% of the Moon is Illuminated
Feb 22
Waning Gibbous
Feb 28
New
Mar 8
First Quarter
Mar 16
Full
Mar 23
Last Quarter

Hourly Weather History & Observations

Time (AKST) Temp. Windchill Dew Point Humidity Pressure Visibility Wind Dir Wind Speed Gust Speed Precip Events Conditions
12:16 AM - - - N/A% 29.49 in 10.0 mi SE 36.8 mph 44.9 mph N/A   Overcast
12:36 AM 42.8 °F 31.6 °F 33.8 °F 70% 29.51 in 8.0 mi SE 34.5 mph 42.6 mph N/A   Overcast
12:56 AM - - - N/A% 29.52 in 9.0 mi SE 26.5 mph 42.6 mph N/A   Overcast
1:16 AM 44.6 °F 34.1 °F 33.8 °F 66% 29.51 in 10.0 mi SE 34.5 mph 41.4 mph N/A   Overcast
1:36 AM - - - N/A% 29.51 in 10.0 mi SE 38.0 mph 47.2 mph N/A   Overcast
1:56 AM - - - N/A% 29.52 in 10.0 mi SE 38.0 mph 46.0 mph N/A   Overcast
2:16 AM - - - N/A% 29.52 in 10.0 mi SE 36.8 mph 44.9 mph N/A   Overcast
2:36 AM 44.6 °F 33.3 °F 33.8 °F 66% 29.51 in 10.0 mi SE 40.3 mph 49.5 mph N/A   Overcast
2:56 AM - - - N/A% 29.53 in 10.0 mi SE 36.8 mph 48.3 mph N/A   Overcast
3:16 AM - - - N/A% 29.53 in 7.0 mi SE 33.4 mph 40.3 mph N/A   Overcast
3:36 AM - - - N/A% 29.53 in 10.0 mi SE 33.4 mph 43.7 mph N/A   Overcast
3:56 AM 42.8 °F 31.6 °F 33.8 °F 70% 29.53 in 10.0 mi SE 34.5 mph 46.0 mph N/A   Mostly Cloudy
4:16 AM - - - N/A% 29.52 in 10.0 mi SE 31.1 mph 43.7 mph N/A   Overcast
4:36 AM - - - N/A% 29.52 in 10.0 mi SE 33.4 mph 43.7 mph N/A   Overcast
4:56 AM - - - N/A% 29.52 in 10.0 mi SE 31.1 mph 46.0 mph N/A   Overcast
5:16 AM - - - N/A% 29.51 in 10.0 mi SE 35.7 mph 46.0 mph N/A   Overcast
5:36 AM - - - N/A% 29.52 in 10.0 mi SE 32.2 mph 43.7 mph N/A   Overcast
5:56 AM - - - N/A% 29.52 in 10.0 mi SE 34.5 mph 44.9 mph N/A   Overcast
6:16 AM - - - N/A% 29.52 in 10.0 mi SE 31.1 mph 40.3 mph N/A   Mostly Cloudy
6:36 AM - - - N/A% 29.52 in 10.0 mi SE 31.1 mph 41.4 mph N/A   Overcast
6:56 AM 41.0 °F 30.9 °F 33.8 °F 76% 29.54 in 10.0 mi SE 24.2 mph 31.1 mph N/A   Mostly Cloudy
7:16 AM 39.2 °F 29.8 °F 33.8 °F 81% 29.56 in 8.0 mi SE 18.4 mph - 0.01 in   Mostly Cloudy
7:36 AM 39.2 °F 29.3 °F 33.8 °F 81% 29.56 in 10.0 mi SE 20.7 mph 25.3 mph 0.02 in   Mostly Cloudy
7:56 AM 39.2 °F 29.3 °F 33.8 °F 81% 29.55 in 10.0 mi SE 20.7 mph - 0.03 in   Overcast
8:16 AM 39.2 °F 28.7 °F 33.8 °F 81% 29.56 in 9.0 mi SE 23.0 mph - N/A   Overcast
8:36 AM 41.0 °F 30.2 °F 33.8 °F 76% 29.56 in 10.0 mi ESE 27.6 mph 33.4 mph 0.01 in   Overcast
8:56 AM 41.0 °F 30.2 °F 33.8 °F 76% 29.56 in 10.0 mi ESE 27.6 mph 34.5 mph 0.02 in   Overcast
9:16 AM 41.0 °F 30.2 °F 32.0 °F 70% 29.55 in 9.0 mi ESE 27.6 mph 34.5 mph 0.01 in   Overcast
9:36 AM 41.0 °F 30.5 °F 33.8 °F 76% 29.54 in 9.0 mi ESE 26.5 mph 34.5 mph 0.01 in   Overcast
9:56 AM 41.0 °F 30.7 °F 33.8 °F 76% 29.55 in 10.0 mi ESE 25.3 mph 34.5 mph 0.01 in   Overcast
10:16 AM 41.0 °F 30.2 °F 33.8 °F 76% 29.54 in 10.0 mi ESE 27.6 mph 38.0 mph N/A   Mostly Cloudy
10:36 AM 42.8 °F 31.9 °F 33.8 °F 70% 29.53 in 9.0 mi ESE 32.2 mph 42.6 mph N/A   Mostly Cloudy
10:56 AM 42.8 °F 32.1 °F 33.8 °F 70% 29.53 in 10.0 mi ESE 31.1 mph 39.1 mph N/A   Overcast
11:16 AM 42.8 °F 32.1 °F 33.8 °F 70% 29.53 in 10.0 mi ESE 31.1 mph 36.8 mph N/A   Overcast
11:36 AM 42.8 °F 32.3 °F 33.8 °F 70% 29.52 in 8.0 mi ESE 29.9 mph 41.4 mph 0.01 in   Mostly Cloudy
11:56 AM 41.0 °F 30.2 °F 33.8 °F 76% 29.53 in 10.0 mi ESE 27.6 mph 35.7 mph 0.01 in   Overcast
12:16 PM 41.0 °F 30.9 °F 33.8 °F 76% 29.53 in 10.0 mi ESE 24.2 mph 33.4 mph N/A   Overcast
12:36 PM 41.0 °F 34.7 °F 33.8 °F 76% 29.52 in 10.0 mi East 10.4 mph 20.7 mph N/A   Overcast
12:56 PM 41.0 °F 33.5 °F 33.8 °F 76% 29.51 in 10.0 mi East 13.8 mph 23.0 mph N/A   Overcast
1:16 PM 41.0 °F 30.7 °F 33.8 °F 76% 29.51 in 10.0 mi ESE 25.3 mph 32.2 mph N/A   Overcast
1:36 PM 41.0 °F 32.5 °F 33.8 °F 76% 29.50 in 10.0 mi East 17.3 mph 29.9 mph N/A   Overcast
1:56 PM 42.8 °F 37.0 °F 33.8 °F 70% 29.49 in 10.0 mi East 10.4 mph 27.6 mph 0.01 in   Overcast
2:16 PM 41.0 °F 31.6 °F 32.0 °F 70% 29.48 in 10.0 mi East 20.7 mph 29.9 mph N/A   Overcast
2:36 PM 41.0 °F 30.7 °F 33.8 °F 76% 29.47 in 7.0 mi East 25.3 mph 38.0 mph N/A   Overcast
2:56 PM 41.0 °F 31.6 °F 33.8 °F 76% 29.45 in 7.0 mi East 20.7 mph 29.9 mph 0.01 in   Overcast
3:16 PM 41.0 °F 31.6 °F 33.8 °F 76% 29.44 in 5.0 mi East 20.7 mph 42.6 mph N/A   Overcast
3:36 PM 42.8 °F 33.1 °F 33.8 °F 70% 29.42 in 10.0 mi ESE 25.3 mph 31.1 mph N/A   Overcast
3:56 PM 42.8 °F 33.5 °F 33.8 °F 70% 29.41 in 10.0 mi ESE 23.0 mph 29.9 mph 0.01 in   Overcast
4:16 PM 41.0 °F 32.2 °F 33.8 °F 76% 29.40 in 9.0 mi ESE 18.4 mph 33.4 mph N/A   Overcast
4:36 PM 41.0 °F 30.9 °F 33.8 °F 76% 29.39 in 8.0 mi ESE 24.2 mph 32.2 mph 0.01 in   Overcast
4:56 PM 42.8 °F 33.3 °F 33.8 °F 70% 29.38 in 10.0 mi ESE 24.2 mph 36.8 mph 0.01 in   Overcast
5:16 PM 41.0 °F 31.6 °F 33.8 °F 76% 29.39 in 8.0 mi East 20.7 mph 33.4 mph N/A   Overcast
5:36 PM 41.0 °F 31.4 °F 33.8 °F 76% 29.37 in 6.0 mi ESE 21.9 mph 39.1 mph 0.01 in   Overcast
5:56 PM 41.0 °F 30.0 °F 33.8 °F 76% 29.35 in 5.0 mi ESE 28.8 mph 39.1 mph 0.02 in   Overcast
6:16 PM 42.8 °F 30.5 °F 33.8 °F 70% 29.31 in 3.0 mi ESE 42.6 mph 54.1 mph 0.01 in   Overcast
6:36 PM 42.8 °F 31.8 °F 33.8 °F 70% 29.30 in 2.0 mi ESE 33.4 mph 51.8 mph 0.02 in   Overcast
6:56 PM 41.0 °F 28.5 °F 33.8 °F 76% 29.29 in 1.8 mi SE 39.1 mph 57.5 mph 0.02 in   Overcast
7:16 PM 41.0 °F 27.9 °F 33.8 °F 76% 29.27 in 3.0 mi ESE 43.7 mph 58.7 mph 0.01 in   Partly Cloudy
7:36 PM 41.0 °F 28.3 °F 33.8 °F 76% 29.27 in 3.0 mi ESE 40.3 mph 52.9 mph 0.01 in   Mostly Cloudy
7:56 PM 42.8 °F 30.3 °F 33.8 °F 70% 29.26 in 4.0 mi SE 44.9 mph 56.4 mph 0.01 in   Overcast
8:16 PM 41.0 °F 27.7 °F 33.8 °F 76% 29.27 in 5.0 mi ESE 44.9 mph 62.1 mph N/A   Overcast
8:36 PM - - - N/A% 29.26 in 9.0 mi SE 46.0 mph 54.1 mph N/A   Overcast
8:56 PM - - - N/A% 29.26 in 5.0 mi ESE 43.7 mph 55.2 mph N/A   Mostly Cloudy
9:16 PM 42.8 °F 30.7 °F 32.0 °F 66% 29.27 in 6.0 mi SE 41.4 mph 55.2 mph N/A   Overcast
9:36 PM 42.8 °F 30.8 °F 32.0 °F 66% 29.26 in 5.0 mi ESE 40.3 mph 54.1 mph N/A   Overcast
9:56 PM - - - N/A% 29.25 in 7.0 mi ESE 42.6 mph 54.1 mph N/A   Overcast
10:16 PM - - - N/A% 29.27 in 5.0 mi ESE 38.0 mph 51.8 mph N/A   Overcast
10:36 PM - - - N/A% 29.28 in 7.0 mi ESE 39.1 mph 49.5 mph N/A   Overcast
10:56 PM - - - N/A% 29.29 in 9.0 mi ESE 34.5 mph 51.8 mph N/A   Overcast
11:16 PM - - - N/A% 29.28 in 10.0 mi ESE 38.0 mph 44.9 mph N/A   Overcast
11:36 PM - - - N/A% 29.29 in 10.0 mi ESE 34.5 mph 47.2 mph N/A   Overcast
11:56 PM - - - N/A% 29.27 in 8.0 mi ESE 35.7 mph 44.9 mph N/A   Overcast